Regional Weather Roundup
Issued by NWS Burlington, VT

Home | Current Version | Previous Version | Text Only | Print | Product List | Glossary On
Versions: 1 2 3 4 5 6 7 8 9 10 11 12 13 14 15 16 17 18 19 20 21 22 23 24 25 26 27 28 29 30 31 32 33 34 35 36 37 38 39 40 41 42 43 44 45 46 47 48 49 50
000
ASUS41 KBTV 290130
RWRBTV
VERMONT REGIONAL WEATHER ROUNDUP
NATIONAL WEATHER SERVICE BURLINGTON VT
900 PM EDT MON JUL 28 2014

NOTE: "FAIR" INDICATES FEW OR NO CLOUDS BELOW 12,000 FEET WITH NO
SIGNIFICANT WEATHER AND/OR OBSTRUCTIONS TO VISIBILITY.

* THESE REPORTS ARE NOT UNDER NWS QUALITY CONTROL AND/OR DO NOT
  REPORT WEATHER SUCH AS PRECIPITATION AND FOG.

VTZ001>019-290200-
_____VERMONT_____


CITY           SKY/WX    TMP DP  RH WIND       PRES   REMARKS
BURLINGTON     LGT RAIN  62  59  90 N15       29.60R
MONTPELIER     LGT RAIN  60  59  96 NW10      29.60R FOG
MORRISVILLE    LGT RAIN  61  58  90 NW13      29.57R
ST. JOHNSBURY*   N/A     65  61  87 MISG      29.49R
LYNDONVILLE*     N/A    N/A N/A N/A MISG        N/A
MIDDLEBURY*    RAIN      61  61 100 N8        29.59R
RUTLAND*       CLOUDY    61  57  88 NW13      29.58R
SPRINGFIELD    RAIN      63  60  90 SW5       29.56R FOG
HIGHGATE*      LGT RAIN  60  58  94 N6        29.61R
NEWPORT*       HVY RAIN N/A N/A N/A NW9G17    29.57R
BENNINGTON     CLOUDY    63  60  90 NW7       29.59R
SUTTON*          N/A     61 N/A N/A MISG        N/A
MT. MANSFIELD*   N/A     50 N/A N/A N25G38      N/A

_____LAKE CHAMPLAIN_____


CITY           SKY/WX    TMP DP  RH WIND       PRES   REMARKS
COLCHESTER RF*   N/A    N/A N/A N/A N29         N/A
DIAMOND ISL*     N/A     63  59  88 NW16        N/A

$$

NYZ007-026>031-035-052-083-290200-
_____NORTHERN NEW YORK_____


CITY           SKY/WX    TMP DP  RH WIND       PRES   REMARKS
PLATTSBURGH    LGT RAIN  60  58  92 NW15      29.62R
SARANAC LAKE   LGT RAIN  55  53  93 N8G17     29.68R FOG
MASSENA        CLOUDY    61  59  93 W3        29.69R
OGDENSBURG*    MOCLDY    61  57  88 NW6       29.72R
POTSDAM*       CLOUDY    59  59 100 CALM      29.71R
WATERTOWN      CLOUDY    61  55  81 CALM      29.74R
FT DRUM        CLOUDY    58  58 100 W5        29.74R
ALBANY         MOCLDY    67  60  78 W13       29.60R
GLENS FALLS    RAIN      63  59  87 NW7       29.60R FOG

$$
NHZ002-005-011-290200-
_____NEW HAMPSHIRE_____


CITY           SKY/WX    TMP DP  RH WIND       PRES   REMARKS
LEBANON        CLOUDY    68  65  90 S8        29.51R
KEENE          CLOUDY    66  57  72 S7        29.55R
MT WASHINGTON  MOCLDY    50  48  93 NW15        N/A
PLYMOUTH       CLOUDY    64  63  95 CALM      29.50R
WHITEFIELD     CLOUDY    67  64  90 CALM      29.49R

$$

_____REGIONAL QUEBEC LOCATIONS_____


CITY           SKY/WX    TMP DP  RH WIND       PRES   REMARKS
MONTREAL       LGT RAIN  61  55  82 N13       29.64R
QUEBEC CITY    RAIN      61  59  94 VRB2      29.57S FOG
SHERBROOKE     CLOUDY    59  57  94 NW10      29.51S

_____REGIONAL ONTARIO LOCATIONS_____


CITY           SKY/WX    TMP DP  RH WIND       PRES   REMARKS
OTTAWA         MOCLDY    61  52  72 NW8       29.72R

______KEY______
VSB  - VISIBILITY IN MILES
WCI  - WIND CHILL INDEX
HX   - HEAT INDEX
$$
NNNN



USA.gov is the U.S. government's official web portal to all federal, state and local government web resources and services.